User: anonymous   Login
Location: Cactus School
(34.5700°N, 118.0931°W)
Time: 10:23:47
(UTC-08:00)
Language:

SR - Orbit

View from above orbital plane
View from above orbital plane
View from above satellite
View from above satellite

Ground track
Ground track

The orbit data is extracted from the following two-line orbital elements,

1    46U 60007B   19325.29527949 -.00000030  00000-0  17329-4 0  9990
2    46  66.6907 251.6666 0217268 286.5090  71.2248 14.49259079108793
Epoch (UTC): 21 November 2019 07:05:12
Eccentricity: 0.0217268
inclination: 66.6907°
perigee height: 573 km
apogee height: 882 km
right ascension of ascending node: 251.6666°
argument of perigee: 286.5090°
revolutions per day: 14.49259079
mean anomaly at epoch: 71.2248°
orbit number at epoch: 10879

The dashed part of the orbit path shows where the satellite is in the earth's shadow,  

DLR